GFSFLT2_250_spd_186.txt.gz
Wind_Speed
38 36 29 31 35 33 38 38 32 35 36 25 32 32 28 31 32 25 23 20 20 21 23 25 27 27 29 28 28 29 29 29
34 41 30 31 32 33 41 42 31 31 35 32 36 32 32 28 28 22 27 26 22 19 22 22 22 25 29 32 32 34 34 34
33 41 38 34 32 32 42 44 32 33 36 38 37 35 33 30 29 25 25 27 24 21 19 20 21 22 26 31 34 35 29 32
39 39 36 38 31 29 35 48 37 35 37 40 38 36 38 33 32 30 25 32 30 25 21 22 21 25 28 30 32 33 33 36
37 38 37 42 34 29 34 43 36 36 37 36 38 39 37 33 37 39 30 33 34 27 26 28 26 27 29 33 35 37 40 42
41 39 42 46 42 37 42 43 36 37 38 37 39 37 33 31 35 37 33 34 35 33 33 31 31 31 32 33 33 32 40 41
46 41 40 45 42 44 45 41 39 39 41 40 41 38 34 30 39 34 31 34 37 36 38 38 36 36 36 35 37 36 39 39
46 43 44 46 43 46 38 40 45 43 44 46 43 40 36 40 37 35 32 34 37 39 40 43 41 39 40 41 41 41 44 45
49 46 47 45 43 43 38 42 50 47 50 48 46 44 42 40 36 36 38 35 37 39 46 41 44 41 42 45 44 42 42 46
45 49 47 47 44 40 44 52 56 51 52 48 46 42 43 42 42 38 41 36 41 46 41 42 42 42 46 45 48 45 43 47
48 53 51 48 43 46 57 64 54 50 47 46 46 45 44 41 36 40 42 40 37 38 42 41 45 46 45 45 46 46 41 47
51 62 64 59 52 57 64 57 50 49 46 46 47 49 47 44 45 40 40 41 42 41 45 45 49 54 53 45 44 47 50 52
57 65 60 61 56 66 62 50 49 49 48 51 54 53 54 53 54 55 57 50 46 47 43 53 55 55 54 55 51 51 54 52
59 61 64 59 64 60 51 48 50 52 53 55 57 61 62 66 66 62 57 56 48 40 45 52 60 57 62 62 63 59 61 62
66 61 61 58 54 54 55 53 52 53 57 59 61 61 59 62 63 62 65 60 56 49 52 46 63 60 64 62 65 60 67 71
66 63 62 60 57 56 56 55 58 60 63 66 60 65 67 67 63 65 72 72 69 63 61 67 75 73 74 73 76 72 73 77
65 66 64 62 60 62 62 65 66 68 69 68 67 69 72 72 75 77 81 72 57 58 59 64 68 65 62 77 71 75 75 79
64 67 66 65 66 68 66 67 67 70 71 74 74 77 79 83 86 84 75 63 70 68 63 70 68 64 69 68 78 82 81 77
67 64 63 61 63 66 70 72 71 74 78 81 82 85 86 91 90 79 78 73 63 64 64 67 66 74 73 71 87 90 86 91
70 66 66 68 74 79 81 84 86 90 91 92 93 95 94 95 93 89 78 69 58 59 69 77 73 79 79 74 85 92 88 96

GFSFLT2_250_spd_189.txt.gz
Wind_Speed
38 39 31 31 30 29 28 27 29 26 27 31 32 34 33 29 29 26 22 22 29 24 13 15 17 19 20 22 23 25 25 28
39 40 29 25 37 32 34 27 27 31 28 30 32 36 33 28 28 25 24 23 22 28 21 16 16 14 17 21 23 24 28 30
38 37 26 32 36 34 35 30 31 31 29 29 30 34 32 31 32 26 26 26 22 27 22 19 20 20 18 18 20 21 26 29
38 30 31 39 33 34 36 38 32 33 29 29 31 33 35 32 34 27 27 29 26 27 29 26 23 24 22 20 23 25 27 27
40 39 39 32 33 31 34 38 33 39 26 38 35 36 37 34 34 34 34 34 28 28 31 33 31 31 28 26 24 27 26 26
44 44 33 32 37 28 33 37 40 28 32 45 38 37 36 38 35 37 32 38 31 30 32 35 34 36 33 29 30 33 32 30
49 41 36 36 38 32 38 36 35 29 44 47 39 38 42 38 38 39 40 33 30 32 37 35 35 37 37 36 34 37 39 33
41 39 39 39 33 40 37 41 35 34 45 47 40 37 39 38 38 38 39 36 38 36 36 35 36 39 38 36 33 38 43 43
43 43 38 41 32 40 43 40 32 39 48 53 42 35 38 37 37 38 36 36 34 39 39 38 40 40 35 38 29 41 45 48
42 48 38 38 40 44 43 45 43 43 52 54 38 40 40 41 36 40 35 35 41 40 41 41 42 38 36 39 36 39 42 46
40 44 44 40 45 54 49 49 45 53 58 44 40 41 40 40 38 39 43 47 49 47 42 41 44 45 40 41 41 43 49 50
42 46 49 48 51 57 52 52 54 55 41 42 44 44 40 42 45 46 49 51 49 51 49 45 43 52 51 47 46 49 54 50
41 47 50 50 49 49 52 56 53 47 47 46 44 44 44 45 49 52 55 50 51 50 52 54 54 54 49 52 46 44 49 53
38 47 60 54 57 53 52 50 47 48 45 45 46 47 49 52 56 52 55 55 51 54 62 67 65 60 56 53 49 46 55 58
62 53 60 58 54 50 49 50 51 49 51 51 51 54 56 56 56 59 58 58 58 59 65 65 62 53 52 52 61 66 62 71
54 51 52 52 51 48 49 53 53 54 55 52 53 52 53 55 56 62 63 63 65 68 71 65 60 57 51 60 63 65 64 71
62 63 57 54 53 52 53 49 50 49 49 53 51 56 63 64 69 73 75 75 75 75 69 67 59 71 70 70 77 73 78 70
61 57 56 55 51 54 50 56 58 56 55 60 60 64 70 74 79 81 83 84 80 77 84 78 81 66 59 65 64 69 77 78
66 64 62 60 55 59 63 64 61 61 63 68 68 71 74 82 86 84 85 85 89 85 94 88 76 63 81 80 75 80 81 86
68 67 67 66 66 65 70 68 72 70 75 76 76 79 82 91 94 92 90 93 94 98 103 74 93 79 79 77 86 88 85 87

GFSFLT2_250_spd_192.txt.gz
Wind_Speed
32 35 32 33 21 23 31 27 28 29 27 24 25 28 29 26 23 23 21 19 19 19 18 16 14 15 15 16 18 20 21 22
35 33 33 33 24 29 30 28 25 32 30 28 24 31 27 24 27 27 26 23 22 20 18 17 16 15 18 22 23 21 22 22
39 37 34 29 32 34 27 30 25 28 25 28 20 32 28 28 27 29 28 26 29 28 24 20 23 16 16 21 26 25 22 23
43 41 35 35 35 28 29 32 24 27 18 30 26 34 28 26 26 28 31 29 29 28 30 27 23 22 21 21 24 25 26 25
44 42 34 43 34 29 32 31 27 27 25 32 30 34 30 26 26 30 30 30 33 32 35 30 31 28 28 25 26 27 26 28
49 38 40 38 31 33 35 34 28 28 30 22 30 33 34 31 26 31 32 32 33 32 34 35 37 33 35 30 33 31 29 28
42 38 36 32 32 35 35 28 25 30 36 34 29 36 33 31 33 31 33 34 33 31 31 32 33 37 39 34 36 39 37 33
39 37 38 30 31 32 31 23 25 35 40 32 32 39 34 37 36 33 35 35 30 27 27 27 29 34 34 39 39 41 41 39
42 38 29 31 34 33 26 34 33 36 36 32 38 41 38 37 40 34 30 31 27 31 34 38 36 35 31 33 41 45 42 44
43 44 32 23 33 34 34 37 37 46 34 39 40 39 33 36 37 35 29 32 40 39 40 40 38 37 34 30 34 45 47 53
38 38 31 31 30 38 42 40 37 43 42 42 40 30 34 38 36 37 39 40 42 45 41 43 42 41 38 44 46 48 45 48
35 39 36 34 28 32 38 39 40 43 44 36 34 34 36 31 37 38 40 41 44 45 45 45 49 51 50 50 51 53 51 51
33 35 32 30 33 49 49 45 50 43 39 39 39 39 37 40 39 38 40 46 44 40 43 47 49 53 59 54 52 53 55 50
30 29 37 47 48 47 50 52 42 38 38 42 42 41 42 41 39 41 39 37 39 47 51 54 55 49 61 54 51 44 52 48
39 50 50 48 50 51 52 48 44 41 40 43 46 49 43 39 38 42 47 47 48 52 53 55 59 40 55 68 56 42 60 58
65 62 62 54 50 48 45 45 46 47 47 46 49 46 47 46 43 50 47 50 52 57 62 64 65 54 62 69 63 59 67 81
59 63 61 59 56 52 52 51 50 46 45 48 50 54 53 51 55 58 55 62 61 64 69 70 71 75 82 83 78 73 87 87
58 58 55 56 57 57 57 56 54 53 54 55 57 58 53 56 62 64 64 68 68 75 81 80 77 83 89 89 81 91 93 92
62 59 58 57 57 59 59 58 58 58 60 61 65 61 63 61 67 73 76 80 84 83 84 84 89 91 93 83 102 96 96 96
68 63 60 60 62 62 63 64 66 67 66 64 65 68 70 76 76 75 88 90 90 90 94 95 97 95 100 97 91 102 97 87

GFSFLT2_250_spd_195.txt.gz
Wind_Speed
53 42 38 38 35 31 29 29 28 30 24 22 21 21 25 20 22 20 19 19 19 18 18 13 16 20 17 18 16 16 21 23
58 43 39 41 39 33 32 32 27 29 22 21 19 23 25 24 20 17 18 17 22 24 19 18 20 21 17 19 19 19 19 22
58 48 44 44 31 34 35 27 28 31 24 15 17 25 24 23 23 18 18 21 21 20 21 21 24 24 25 24 23 23 22 21
56 47 45 40 34 36 31 26 32 33 29 20 20 26 22 28 23 17 23 21 20 21 20 20 26 24 28 29 29 26 26 28
58 49 44 35 34 36 29 30 31 33 28 23 24 31 28 28 19 22 22 26 22 21 24 24 24 25 27 30 31 31 29 27
61 48 42 32 34 36 31 31 31 25 21 22 29 36 29 27 27 24 28 29 26 26 28 24 26 29 30 28 32 35 32 34
57 46 38 33 31 31 28 29 29 21 19 29 35 30 26 33 31 26 31 31 28 22 22 26 26 24 29 33 33 33 35 34
49 44 39 37 31 28 25 25 31 24 30 32 34 32 35 36 30 29 29 29 27 23 25 28 32 33 35 32 32 35 31 31
48 42 37 34 33 25 22 26 25 30 34 26 33 35 36 33 29 30 28 28 32 33 30 34 37 32 30 28 31 29 31 36
53 45 31 25 25 27 27 24 30 32 36 36 38 40 36 29 31 32 27 25 26 33 30 31 38 37 35 34 36 39 42 45
55 41 31 25 27 33 31 23 35 37 32 37 38 39 37 35 34 34 32 30 34 35 34 36 36 32 30 35 37 40 49 45
52 43 36 31 26 22 30 43 45 48 42 46 49 41 33 33 33 35 37 38 41 36 42 35 38 40 40 35 35 39 45 41
51 48 37 28 25 44 42 46 49 50 47 39 36 35 33 37 41 41 41 43 42 45 46 49 47 48 49 47 40 41 42 50
50 42 27 48 52 45 48 43 45 44 40 38 39 38 39 39 38 41 44 42 44 45 48 53 54 56 55 54 54 44 47 49
52 43 49 53 45 46 47 47 46 45 44 44 44 45 48 45 41 45 45 47 51 49 53 51 52 54 57 63 60 60 65 63
51 49 49 47 47 49 47 46 46 45 46 47 47 47 46 46 49 50 53 54 52 53 50 51 53 56 62 68 68 68 67 72
52 52 53 48 49 50 49 47 48 50 51 52 52 51 50 52 53 53 54 54 59 57 61 62 59 63 71 78 74 79 82 87
56 56 55 50 49 50 51 53 54 54 55 55 55 56 60 62 63 61 55 54 57 58 59 62 65 76 81 81 87 92 93 96
60 59 58 56 56 54 51 54 55 56 57 58 62 64 65 64 62 64 62 59 58 67 66 49 77 80 85 90 95 95 98 101
61 65 69 65 61 56 56 56 58 60 64 59 62 64 64 60 64 68 67 67 71 73 73 79 81 82 96 103 109 109 99 105

GFSFLT2_250_spd_201.txt.gz
Wind_Speed
59 61 63 63 69 68 49 32 32 32 23 21 18 16 11 15 15 16 12 14 18 20 19 17 15 11 9 10 9 9 9 8
58 62 64 66 68 63 53 36 33 31 26 21 20 15 11 14 22 11 11 16 19 22 20 21 19 15 13 12 12 12 13 13
57 61 62 65 68 64 53 40 32 29 25 22 17 14 12 10 13 12 15 17 18 22 20 18 20 20 15 14 15 16 15 15
56 60 61 62 66 63 57 39 36 27 23 21 13 12 11 14 18 16 18 20 15 21 23 19 20 21 22 22 20 21 19 21
56 58 58 61 62 63 54 34 31 24 26 23 22 22 21 24 21 16 20 26 21 21 22 18 21 20 22 23 24 25 25 23
59 56 57 59 60 61 46 35 26 23 23 26 28 26 23 26 23 28 27 27 19 20 24 21 20 18 22 24 30 30 26 26
56 55 54 59 61 54 41 30 24 20 23 29 34 27 27 29 29 26 29 32 29 27 25 19 16 19 23 27 25 26 31 34
55 53 53 58 61 51 42 32 26 21 21 23 26 28 29 34 32 30 35 38 33 26 24 26 26 25 21 18 24 29 32 36
54 53 53 58 59 47 40 31 22 24 25 31 29 33 32 37 34 37 33 30 24 24 21 23 25 28 25 27 31 30 36 41
52 53 55 61 55 50 38 31 24 27 30 27 25 25 28 30 30 28 22 21 24 27 26 27 29 31 31 29 26 34 38 43
53 53 56 60 51 46 35 31 31 31 34 28 26 27 30 29 27 26 30 30 32 33 35 36 38 37 38 33 33 40 44 47
53 53 58 55 55 51 32 35 31 30 31 29 37 30 29 32 31 30 30 35 38 36 35 35 37 36 40 39 43 46 47 48
53 55 59 54 56 49 33 33 32 33 31 29 32 32 32 30 31 33 36 40 38 36 38 40 42 46 43 41 45 47 50 55
50 58 58 55 56 50 39 34 36 36 32 36 31 32 31 27 31 34 36 36 38 40 42 42 41 45 44 37 46 54 58 58
55 58 60 58 58 57 43 38 38 37 37 36 29 36 31 33 31 31 35 38 39 43 47 48 51 52 51 51 43 63 60 64
57 58 60 59 61 56 47 44 40 37 37 34 34 38 33 34 38 35 43 43 42 43 47 47 43 52 58 62 64 66 68 66
56 58 63 64 63 58 47 49 43 41 37 38 35 37 40 43 46 46 47 49 40 32 34 38 41 37 44 53 56 56 59 68
58 58 65 66 63 56 52 54 45 42 40 42 43 42 45 47 48 46 47 52 44 40 40 46 54 53 51 55 51 52 54 58
60 62 65 67 65 56 54 53 51 47 46 46 48 47 48 52 53 54 55 54 52 52 53 51 60 54 58 60 61 65 70 71
68 65 65 67 64 59 53 53 54 56 55 54 52 53 56 55 56 59 60 58 59 62 61 64 68 71 61 62 66 66 74 78

GFSFLT2_250_spd_204.txt.gz
Wind_Speed
43 47 58 56 58 58 61 54 40 32 24 20 21 18 14 11 12 16 11 13 11 13 14 15 17 14 11 12 10 8 9 9
41 44 58 57 57 57 57 49 41 33 23 17 18 15 13 11 11 10 12 17 16 14 17 18 17 16 15 11 10 11 14 12
42 44 56 56 55 57 54 51 43 28 21 17 16 18 14 14 12 17 13 20 21 21 22 19 15 17 15 15 14 16 18 16
41 48 56 55 55 56 52 50 31 25 21 19 18 23 20 22 23 20 16 24 25 24 21 19 18 26 18 16 18 17 19 23
40 48 53 52 55 56 51 45 32 24 19 19 18 23 22 15 15 16 22 26 21 29 23 24 26 26 19 21 21 23 25 25
42 49 50 50 53 56 47 41 33 23 23 21 21 23 24 22 24 22 23 24 26 31 26 25 22 21 19 23 22 29 25 29
39 47 48 49 52 56 50 47 34 24 22 24 26 26 27 27 29 31 31 28 32 32 26 23 24 24 21 26 19 19 28 29
39 44 48 50 52 56 54 48 36 25 24 26 26 23 22 22 24 29 33 28 26 21 21 21 23 26 26 24 24 24 26 32
38 44 45 51 51 56 53 50 43 27 22 25 23 22 26 23 23 23 24 25 22 20 22 25 26 28 27 26 28 29 32 25
40 43 44 48 49 57 55 53 46 33 25 28 24 23 25 22 21 20 20 24 25 26 27 30 30 31 31 32 35 34 32 33
42 45 43 47 50 57 58 52 42 37 29 28 23 25 24 24 23 21 20 22 25 28 29 25 28 34 30 36 38 40 35 36
43 46 39 44 51 56 58 53 48 42 35 33 28 27 21 23 22 19 20 20 24 24 26 28 33 37 38 35 36 36 35 36
44 43 40 40 51 56 57 57 51 48 50 36 31 29 20 25 21 25 22 23 20 23 27 32 37 40 43 41 41 41 36 36
46 39 41 42 50 56 59 60 58 57 53 39 35 28 25 27 24 23 27 30 29 32 33 38 40 45 49 48 48 46 42 41
40 44 43 43 49 55 60 61 63 59 56 40 35 31 30 29 29 31 30 35 33 37 41 41 38 34 33 38 47 50 48 53
44 50 51 50 46 51 59 63 64 63 58 42 37 36 34 32 34 35 37 39 37 40 43 39 32 32 34 40 30 36 46 46
52 54 53 53 52 52 55 63 61 60 59 47 39 39 36 36 36 36 37 40 42 44 45 47 40 38 45 49 47 58 42 47
56 55 57 59 58 57 55 63 65 62 56 50 42 44 44 40 40 41 42 44 44 44 46 43 48 51 52 53 61 62 67 74
56 57 59 64 65 62 56 60 64 64 54 51 52 50 47 48 46 49 52 51 55 53 60 66 61 58 57 59 63 67 69 76
61 61 66 70 71 63 56 60 67 64 61 51 53 55 56 54 54 57 60 62 59 59 60 60 66 72 75 76 74 73 74 80

GFSFLT2_250_spd_207.txt.gz
Wind_Speed
37 39 41 47 48 48 51 58 58 42 31 22 16 20 20 18 15 12 8 12 14 13 15 18 16 14 17 15 13 12 12 13
34 37 44 44 45 49 52 54 60 45 30 22 19 18 21 15 15 15 17 15 15 18 20 20 15 15 20 18 16 14 15 15
34 34 43 45 46 49 50 54 55 42 33 24 21 18 18 20 19 18 15 16 20 22 18 16 16 15 22 18 16 18 17 17
32 35 42 45 44 48 52 56 54 40 36 23 23 22 18 21 19 19 16 20 21 19 23 25 22 22 22 19 15 18 18 23
36 33 40 44 43 47 52 58 53 36 29 26 23 24 25 27 24 24 27 27 27 25 27 27 22 20 20 16 20 16 24 18
39 31 39 43 46 46 50 56 54 39 26 30 27 21 22 22 23 20 23 25 24 22 17 18 20 22 23 21 25 16 14 22
36 31 39 41 41 44 46 54 55 39 34 34 36 26 20 19 22 20 23 24 19 18 16 16 19 19 22 25 26 25 25 24
37 33 38 40 38 45 45 54 54 45 43 37 43 35 26 18 16 19 20 20 18 17 20 17 17 21 28 22 20 24 25 24
38 37 37 38 36 42 46 53 54 56 51 47 41 42 38 25 21 20 19 17 16 18 18 20 21 21 23 26 22 27 28 26
41 39 37 37 34 39 45 51 54 54 55 52 40 42 45 31 23 18 20 14 13 17 20 17 20 23 24 28 30 28 34 29
40 41 37 34 35 38 41 48 54 57 57 52 51 44 44 37 25 20 19 19 22 25 23 21 27 30 31 33 37 40 40 39
44 35 41 33 36 36 41 46 53 56 58 59 56 50 43 32 27 27 23 23 22 21 22 28 31 31 36 39 42 44 47 46
38 39 40 39 42 43 41 42 49 57 58 59 55 50 41 33 29 27 27 26 26 28 30 32 36 38 37 41 39 45 49 54
38 42 42 41 45 48 45 46 50 55 57 59 59 49 43 40 33 29 28 29 30 31 32 31 34 37 36 36 22 29 18 27
41 41 42 44 47 49 47 50 53 50 59 58 60 55 49 42 37 36 33 31 30 29 33 35 35 36 32 30 30 37 35 37
39 42 43 47 49 51 51 52 54 51 53 60 63 63 57 40 43 40 36 35 33 36 38 36 39 40 38 38 29 30 44 53
42 43 45 49 52 54 53 54 53 57 55 57 60 63 61 57 51 56 46 42 40 42 44 42 42 45 37 38 43 44 51 55
44 46 48 52 57 58 54 53 56 60 60 53 57 63 63 54 54 54 52 51 54 52 50 50 54 56 51 53 55 55 61 67
48 48 50 57 60 61 58 58 60 64 65 58 57 62 66 61 59 56 52 54 55 56 58 63 63 61 64 70 73 74 67 59
50 51 54 57 62 64 62 64 66 68 68 68 58 57 61 62 62 60 54 57 59 62 63 65 67 66 68 75 78 77 74 72